Date String (YYYY-MM-DD hh:mm:ss) UTC,Instrument flags,absolute air pressure of the measurement (hPa),sample flow rate (lpm),inlet stack bypass flow (lpm),air temperature of the measurement (°C),ambient temperature measured by the external sensor (°C),aerosol sample conditioner tube jacket temperature (°C),OPC LED temperature (°C),internal box temperature (°C),relative humidity of the measurement (%),span deviation,mass concentration of particles derived from Lorenz-Mie calculation of OPC scattering (μg/m³),mass concentration of particles derived from Lorenz-Mie calculation of OPC scattering (μg/m³),mass concentration of particles derived from Lorenz-Mie calculation of OPC scattering (μg/m³)
DateTimeUTC,F1_M11,P_M11,Q1_M11,Q2_M11,T1_M11,T2_M11,T3_M11,T4_M11,T5_M11,U1_M11,ZSPAN_M11,X0_M11,X2_M11,X1_M11
2024-01-30 00:00:00,SystemResetWarning,0835.9,5.01,000.00,025.9,024.8,000.0,034.0,027.4,14.2,0000.0,0009.14,0002.99,0002.26
2024-01-30 00:01:00,SystemResetWarning,0835.9,5.00,000.00,025.9,024.9,000.0,034.0,027.4,14.1,0000.0,0008.96,0002.95,0002.26
2024-01-30 00:02:00,SystemResetWarning,0835.9,5.00,000.00,025.9,025.0,000.0,034.0,027.5,14.1,0000.0,0008.76,0002.92,0002.25
2024-01-30 00:03:00,SystemResetWarning,0835.9,4.99,000.00,026.0,025.1,000.0,034.0,027.5,14.1,0000.0,0009.47,0002.89,0002.25
2024-01-30 00:04:00,SystemResetWarning,0835.9,5.00,000.00,026.0,025.2,000.0,034.1,027.6,14.1,0000.0,0009.33,0002.85,0002.23
2024-01-30 00:05:00,SystemResetWarning,0835.9,5.00,000.00,026.1,025.2,000.0,034.1,027.6,14.1,0000.0,0009.40,0002.84,0002.22
2024-01-30 00:06:00,SystemResetWarning,0835.9,4.99,000.00,026.1,024.9,000.0,034.1,027.6,14.0,0000.0,0009.98,0002.84,0002.21
2024-01-30 00:07:00,SystemResetWarning,0835.9,5.00,000.00,026.0,023.0,000.0,034.1,027.5,14.1,0000.0,0010.21,0002.81,0002.20
2024-01-30 00:08:00,SystemResetWarning,0835.9,5.02,000.00,026.0,022.3,000.0,034.1,027.3,14.1,0000.0,0010.37,0002.88,0002.20
2024-01-30 00:09:00,SystemResetWarning,0835.9,4.99,000.00,025.8,022.5,000.0,034.0,026.9,14.2,0000.0,0009.84,0002.95,0002.21
2024-01-30 00:10:00,SystemResetWarning,0835.9,5.00,000.00,025.7,022.8,000.0,034.0,026.7,14.3,0000.0,0010.38,0003.05,0002.21
2024-01-30 00:11:00,SystemResetWarning,0835.9,5.00,000.00,025.7,023.2,000.0,034.0,026.8,14.4,0000.0,0010.89,0003.05,0002.21
2024-01-30 00:12:00,SystemResetWarning,0835.9,5.01,000.00,025.7,023.5,000.0,033.9,026.9,14.4,0000.0,0010.81,0003.08,0002.21
2024-01-30 00:13:00,SystemResetWarning,0835.9,4.99,000.00,025.7,023.8,000.0,033.9,027.0,14.4,0000.0,0011.21,0003.12,0002.22
2024-01-30 00:14:00,SystemResetWarning,0835.9,5.00,000.00,025.7,024.1,000.0,033.9,027.1,14.4,0000.0,0011.05,0003.13,0002.22
2024-01-30 00:15:00,SystemResetWarning,0836.0,5.00,000.00,025.7,024.3,000.0,033.9,027.2,14.4,0000.0,0010.43,0003.12,0002.23
2024-01-30 00:16:00,SystemResetWarning,0836.0,5.00,000.00,025.8,024.5,000.0,033.9,027.2,14.4,0000.0,0011.00,0003.13,0002.24
2024-01-30 00:17:00,SystemResetWarning,0836.0,5.01,000.00,025.8,024.6,000.0,033.9,027.3,14.3,0000.0,0010.41,0003.14,0002.24
2024-01-30 00:18:00,SystemResetWarning,0836.1,5.00,000.00,025.8,024.7,000.0,034.0,027.3,14.3,0000.0,0011.13,0003.15,0002.25
2024-01-30 00:19:00,SystemResetWarning,0836.1,4.99,000.00,025.9,024.9,000.0,034.0,027.4,14.3,0000.0,0010.89,0003.12,0002.26
2024-01-30 00:20:00,SystemResetWarning,0836.1,4.99,000.00,025.9,024.9,000.0,034.0,027.4,14.3,0000.0,0010.83,0003.10,0002.25
2024-01-30 00:21:00,SystemResetWarning,0836.1,4.99,000.00,025.9,025.0,000.0,034.0,027.5,14.3,0000.0,0010.26,0002.99,0002.24
2024-01-30 00:22:00,SystemResetWarning,0836.1,5.00,000.00,026.0,025.1,000.0,034.0,027.5,14.2,0000.0,0009.60,0003.00,0002.26
2024-01-30 00:23:00,SystemResetWarning,0836.1,5.00,000.00,026.0,025.2,000.0,034.1,027.5,14.2,0000.0,0009.11,0002.99,0002.29
2024-01-30 00:24:00,SystemResetWarning,0836.1,5.01,000.00,026.0,025.2,000.0,034.1,027.6,14.2,0000.0,0009.26,0002.90,0002.31
2024-01-30 00:25:00,SystemResetWarning,0836.1,5.01,000.00,026.1,025.3,000.0,034.1,027.6,14.1,0000.0,0008.85,0002.91,0002.34
2024-01-30 00:26:00,SystemResetWarning,0836.1,5.01,000.00,026.1,025.3,000.0,034.1,027.6,14.1,0000.0,0008.85,0002.98,0002.37
2024-01-30 00:27:00,SystemResetWarning,0836.1,4.99,000.00,026.1,024.6,000.0,034.2,027.6,14.1,0000.0,0009.24,0003.05,0002.42
2024-01-30 00:28:00,SystemResetWarning,0836.1,5.00,000.00,026.0,022.6,000.0,034.1,027.4,14.1,0000.0,0009.18,0003.10,0002.46
2024-01-30 00:29:00,SystemResetWarning,0836.2,5.01,000.00,026.0,022.1,000.0,034.1,027.2,14.2,0000.0,0008.68,0003.12,0002.52
2024-01-30 00:30:00,SystemResetWarning,0836.1,4.99,000.00,025.8,022.4,000.0,034.0,026.8,14.3,0000.0,0008.11,0003.17,0002.58
2024-01-30 00:31:00,SystemResetWarning,0836.2,4.99,000.00,025.7,022.8,000.0,034.0,026.7,14.4,0000.0,0009.13,0003.25,0002.66
2024-01-30 00:32:00,SystemResetWarning,0836.2,5.00,000.00,025.7,023.1,000.0,034.0,026.8,14.4,0000.0,0009.91,0003.32,0002.74
2024-01-30 00:33:00,SystemResetWarning,0836.2,5.01,000.00,025.7,023.5,000.0,033.9,026.9,14.4,0000.0,0010.86,0003.37,0002.81
2024-01-30 00:34:00,SystemResetWarning,0836.2,4.98,000.00,025.7,023.8,000.0,033.9,027.0,14.5,0000.0,0011.16,0003.43,0002.86
2024-01-30 00:35:00,SystemResetWarning,0836.2,5.00,000.00,025.7,024.0,000.0,033.9,027.0,14.5,0000.0,0010.78,0003.48,0002.93
2024-01-30 00:36:00,SystemResetWarning,0836.2,5.01,000.00,025.7,024.2,000.0,033.9,027.1,14.5,0000.0,0011.12,0003.53,0003.01
2024-01-30 00:37:00,SystemResetWarning,0836.2,5.01,000.00,025.7,024.4,000.0,033.9,027.1,14.5,0000.0,0011.97,0003.56,0003.06
2024-01-30 00:38:00,SystemResetWarning,0836.3,4.99,000.00,025.8,024.5,000.0,033.9,027.2,14.5,0000.0,0011.43,0003.57,0003.11
2024-01-30 00:39:00,SystemResetWarning,0836.3,4.99,000.00,025.8,024.7,000.0,033.9,027.2,14.5,0000.0,0011.26,0003.62,0003.14
2024-01-30 00:40:00,SystemResetWarning,0836.3,5.00,000.00,025.8,024.8,000.0,034.0,027.3,14.5,0000.0,0011.33,0003.66,0003.17
2024-01-30 00:41:00,SystemResetWarning,0836.4,5.01,000.00,025.8,024.8,000.0,034.0,027.3,14.5,0000.0,0011.25,0003.71,0003.19
2024-01-30 00:42:00,SystemResetWarning,0836.4,5.01,000.00,025.9,024.9,000.0,034.0,027.3,14.5,0000.0,0010.32,0003.73,0003.21
2024-01-30 00:43:00,SystemResetWarning,0836.4,5.00,000.00,025.9,025.0,000.0,034.0,027.4,14.4,0000.0,0009.91,0003.77,0003.22
2024-01-30 00:44:00,SystemResetWarning,0836.4,4.99,000.00,025.9,025.1,000.0,034.0,027.4,14.4,0000.0,0009.04,0003.78,0003.24
2024-01-30 00:45:00,SystemResetWarning,0836.4,5.00,000.00,025.9,025.1,000.0,034.0,027.5,14.3,0000.0,0008.65,0003.76,0003.26
2024-01-30 00:46:00,SystemResetWarning,0836.4,4.99,000.00,026.0,025.2,000.0,034.1,027.5,14.2,0000.0,0008.95,0003.76,0003.27
2024-01-30 00:47:00,SystemResetWarning,0836.5,5.00,000.00,026.0,025.2,000.0,034.1,027.5,14.1,0000.0,0008.51,0003.76,0003.28
2024-01-30 00:48:00,SystemResetWarning,0836.5,4.99,000.00,026.0,025.3,000.0,034.1,027.6,14.1,0000.0,0008.37,0003.76,0003.30
2024-01-30 00:49:00,SystemResetWarning,0836.5,5.00,000.00,026.1,025.3,000.0,034.1,027.6,14.1,0000.0,0008.59,0003.77,0003.31
2024-01-30 00:50:00,SystemResetWarning,0836.5,5.00,000.00,026.1,025.3,000.0,034.2,027.6,14.1,0000.0,0009.28,0003.79,0003.32
2024-01-30 00:51:00,SystemResetWarning,0836.6,5.00,000.00,026.1,025.4,000.0,034.2,027.6,14.1,0000.0,0010.19,0003.77,0003.33
2024-01-30 00:52:00,SystemResetWarning,0836.6,5.01,000.00,026.2,025.4,000.0,034.2,027.6,14.1,0000.0,0010.51,0003.76,0003.33
2024-01-30 00:53:00,SystemResetWarning,0836.7,5.00,000.00,026.2,025.4,000.0,034.2,027.7,14.1,0000.0,0011.72,0003.70,0003.33
2024-01-30 00:54:00,SystemResetWarning,0836.6,5.00,000.00,026.2,025.4,000.0,034.3,027.7,14.1,0000.0,0012.20,0003.68,0003.34
2024-01-30 00:55:00,SystemResetWarning,0836.6,4.98,000.00,026.2,024.1,000.0,034.3,027.7,14.0,0000.0,0012.41,0003.69,0003.35
2024-01-30 00:56:00,SystemResetWarning,0836.6,5.01,000.00,026.1,022.3,000.0,034.2,027.4,14.1,0000.0,0012.42,0003.71,0003.36
2024-01-30 00:57:00,SystemResetWarning,0836.6,5.02,000.00,026.0,022.0,000.0,034.2,027.0,14.2,0000.0,0012.06,0003.73,0003.38
2024-01-30 00:58:00,SystemResetWarning,0836.6,4.99,000.00,025.8,022.3,000.0,034.1,026.7,14.4,0000.0,0012.02,0003.74,0003.38
2024-01-30 00:59:00,SystemResetWarning,0836.6,5.00,000.00,025.7,022.7,000.0,034.1,026.7,14.4,0000.0,0011.71,0003.77,0003.40
